Temperature
17 17 17 17 17 17 16 16 16 16 15 15 15 15 15 15 14 14 14 14 14 14 14 14 14 14 14 14 14 13 13 13 12 12 11 11 11 12 12 12 12 12 12
17 17 17 17 17 17 16 16 16 16 15 15 15 15 15 15 15 14 14 14 14 14 14 14 14 14 13 13 13 13 12 12 12 11 11 11 11 12 12 12 12 12 12
16 16 16 16 16 16 16 16 16 15 15 15 15 14 14 14 14 14 14 14 14 14 14 14 14 13 13 13 13 12 12 12 12 11 11 11 11 12 12 12 12 12 12
16 16 16 16 16 16 16 15 15 15 15 15 15 14 14 14 14 15 14 14 14 14 14 13 13 13 13 13 12 12 12 12 11 11 11 11 11 11 11 11 12 11 11
15 15 15 15 15 15 15 15 15 15 15 15 14 14 14 14 14 14 14 14 14 14 13 13 13 13 13 12 12 12 12 11 11 11 11 11 10 10 10 10 11 11 11
14 14 14 14 14 14 14 14 14 14 14 14 14 14 14 14 14 14 14 14 14 13 13 13 13 12 12 12 12 12 11 11 11 11 11 11 10 10 10 10 10 10 10
13 13 13 13 13 13 13 13 13 13 13 13 13 13 13 13 13 13 13 13 13 13 13 12 12 12 12 12 11 11 11 11 11 11 10 10 10 10 10 10 9 9 9
12 12 12 12 12 12 12 12 12 12 13 12 12 12 12 12 12 12 12 12 12 12 12 12 11 11 11 11 11 11 10 10 10 10 10 10 10 9 9 9 9 8 8
11 11 11 11 11 11 11 11 11 11 12 12 12 12 12 12 12 12 11 11 11 11 11 11 11 11 10 10 10 10 10 10 10 9 9 9 9 9 9 8 8 7 7
10 11 10 10 10 10 10 10 10 11 11 11 11 11 11 11 11 11 11 10 10 10 10 10 10 10 10 9 9 9 9 9 9 8 8 8 8 8 8 8 7 7 6
10 10 10 10 9 9 9 9 10 10 10 10 10 10 10 10 10 10 10 10 10 9 9 9 9 9 9 9 8 8 8 8 8 8 8 7 7 7 7 7 6 6 6
10 10 9 9 9 9 9 9 9 9 9 9 9 9 9 9 9 9 9 9 9 8 8 8 8 8 8 8 8 7 7 7 7 7 7 6 6 6 6 6 5 5 5
9 9 9 9 8 8 8 8 8 8 8 8 8 8 8 8 8 8 8 8 8 7 7 7 7 7 7 7 7 7 6 6 6 6 6 6 5 5 5 5 4 4 4
9 9 9 8 8 8 7 7 7 7 7 7 7 7 7 7 7 7 7 7 7 6 6 6 6 6 6 6 6 6 5 5 5 5 5 5 4 4 4 3 3 3 2
9 9 8 8 8 7 7 7 7 6 6 6 6 6 6 6 6 6 6 6 5 5 5 5 5 5 5 5 5 5 5 4 4 4 4 3 3 3 2 2 2 1 1
9 9 8 8 7 7 7 6 6 6 5 5 5 5 5 5 5 5 5 5 5 4 4 4 4 4 4 4 4 4 4 3 3 3 3 2 2 2 1 1 0 0 -0
9 9 8 8 7 7 6 6 5 5 4 4 4 4 4 4 4 4 4 4 4 4 4 4 4 4 3 3 3 3 3 2 2 2 2 1 1 0 0 -0 -0 -1 -1
9 9 8 7 7 6 5 5 4 4 4 4 4 4 4 3 3 3 3 3 3 3 3 3 3 2 2 2 2 2 2 1 1 1 1 0 -0 -1 -1 -1 -1 -2 -2
9 8 8 7 6 6 5 4 4 3 3 3 3 3 3 3 3 3 2 2 2 2 2 2 1 1 1 1 1 1 0 0 0 -0 -1 -1 -1 -2 -2 -2 -2 -2 -3
8 8 7 6 6 5 4 4 3 3 3 3 3 3 2 2 2 2 2 1 1 1 1 1 0 0 0 -0 -0 -0 -0 -0 -1 -1 -1 -2 -2 -3 -3 -3 -3 -3 -4
7 7 6 6 5 4 4 3 3 3 2 2 2 2 2 2 1 1 1 1 0 0 0 -0 -0 -0 -1 -1 -1 -1 -1 -1 -2 -2 -2 -3 -3 -3 -4 -4 -4 -4 -4
6 6 5 5 4 4 3 3 3 2 2 2 2 1 1 1 1 1 0 0 -0 -0 -0 -0 -1 -1 -1 -1 -1 -2 -2 -2 -2 -2 -3 -3 -4 -4 -4 -4 -4 -5 -5
5 5 4 4 4 3 3 3 2 2 2 1 1 1 1 1 1 0 0 -0 -0 -1 -1 -1 -1 -1 -1 -2 -2 -2 -2 -3 -3 -3 -3 -4 -4 -4 -5 -5 -5 -5 -5
5 4 4 4 3 3 3 2 2 2 1 1 1 1 1 0 0 -0 -0 -0 -0 -1 -1 -1 -1 -1 -2 -2 -2 -2 -3 -3 -3 -3 -4 -4 -4 -5 -5 -5 -6 -6 -6
4 4 4 4 3 3 2 2 2 1 1 1 1 0 0 0 -0 -0 -0 -0 -1 -1 -1 -1 -1 -2 -2 -2 -3 -3 -3 -3 -4 -4 -4 -4 -5 -5 -5 -5 -6 -6 -6
4 4 3 3 3 2 2 2 1 1 1 1 1 0 0 -0 -0 -0 -0 -1 -1 -1 -1 -1 -2 -2 -2 -2 -3 -3 -3 -4 -4 -4 -4 -5 -5 -5 -5 -6 -6 -6 -6
Wind_Speed
6 4 5 6 6 6 7 8 7 7 6 4 5 5 5 4 4 5 10 12 13 14 12 7 8 8 8 9 8 6 6 5 3 2 2 3 4 6 6 7 8 11 16
5 4 3 4 5 6 6 7 7 7 6 5 5 3 3 3 4 4 7 10 11 12 11 8 8 8 8 8 9 7 5 5 5 4 2 3 4 5 6 6 7 8 11
9 7 5 5 5 5 5 6 6 6 5 5 3 2 2 1 2 4 4 6 9 10 10 10 8 8 9 9 10 9 9 7 6 5 5 4 7 4 3 4 5 5 5
8 6 5 5 4 4 3 4 4 4 4 4 5 6 6 6 5 4 4 4 6 7 9 9 9 8 8 9 10 10 9 8 7 5 5 5 4 4 3 3 3 4 5
8 7 6 5 4 3 3 3 4 3 2 3 5 6 5 5 3 2 3 4 3 4 6 7 6 7 8 9 9 9 10 9 9 7 5 6 4 4 4 5 3 2 3
7 6 5 5 4 4 3 3 4 3 2 3 3 4 5 4 2 2 3 3 3 3 4 5 4 5 6 7 8 9 9 9 9 8 7 6 5 6 7 9 6 4 2
9 7 6 5 4 4 3 3 4 3 2 3 2 2 3 3 4 3 3 3 2 3 4 4 4 5 5 5 5 6 7 8 8 9 8 7 7 4 4 6 5 4 2
8 8 7 6 5 4 4 4 4 3 3 3 2 2 1 1 2 2 2 2 2 3 3 3 4 3 3 3 3 4 4 4 5 6 6 5 5 4 4 4 4 3 3
8 7 6 6 5 5 4 4 4 3 3 3 3 3 2 1 1 0 0 0 1 1 1 1 2 2 2 2 2 2 2 2 2 2 3 3 2 2 2 2 3 5 5
7 7 6 5 4 4 4 4 4 4 4 4 3 3 3 3 3 3 3 2 2 2 1 1 1 1 1 1 1 1 1 2 1 1 2 1 1 1 1 1 1 2 4
8 6 5 5 5 5 5 4 4 4 4 4 4 5 5 5 5 5 4 4 4 4 4 3 3 4 3 3 3 3 3 3 3 3 3 3 3 3 2 2 2 1 1
7 6 6 6 5 5 4 4 4 4 3 4 5 5 5 6 6 6 5 5 5 5 5 5 5 6 5 5 5 5 5 5 5 4 5 4 4 4 3 3 3 2 2
7 6 6 5 5 4 4 4 3 3 3 4 5 6 6 6 6 6 6 6 6 7 7 7 7 7 6 7 7 6 7 7 6 6 5 5 5 5 4 4 3 2 3
7 7 6 5 5 4 4 4 3 3 4 5 6 5 5 5 5 6 6 6 6 7 7 7 7 7 7 7 7 7 8 8 8 7 6 5 5 5 4 4 4 3 3
7 8 7 6 5 5 4 4 4 4 5 5 5 5 5 5 6 6 6 7 7 7 7 7 7 7 6 6 7 7 8 8 8 7 6 6 7 7 5 4 3 3 3
8 8 8 7 7 6 5 5 4 4 5 5 5 5 5 6 6 6 6 7 7 7 7 7 7 7 7 10 11 9 7 7 7 6 6 6 6 7 7 7 5 4 3
8 8 8 8 7 7 7 6 5 5 6 6 5 5 5 6 6 6 7 7 6 7 7 7 7 7 8 11 11 11 7 6 6 5 4 4 4 6 4 5 7 6 5
8 7 7 6 6 6 6 6 6 6 6 6 5 5 6 6 6 6 6 6 5 6 6 6 6 7 8 11 11 11 8 6 6 5 4 4 3 2 3 4 3 3 3
6 6 6 6 6 7 7 7 6 6 6 6 6 6 6 7 6 6 6 5 5 5 5 5 6 6 6 9 9 9 5 5 5 4 3 3 1 2 3 3 2 2 3
5 5 6 6 7 6 7 8 7 6 6 6 6 6 6 7 7 6 5 4 5 5 5 5 4 4 4 6 7 7 4 4 3 3 3 2 1 2 2 2 0 2 3
4 6 6 6 6 7 8 7 7 6 6 6 6 6 6 7 7 6 5 5 5 5 5 4 3 3 3 5 5 6 3 3 2 1 1 2 3 3 3 2 1 4 3
4 5 5 5 5 7 8 7 7 6 7 7 7 7 6 6 6 6 5 5 6 5 4 3 2 1 2 2 3 4 3 3 2 0 1 3 4 4 4 3 4 5 3
5 4 5 5 5 6 7 8 7 7 8 7 7 7 6 5 6 6 6 5 4 4 3 3 3 1 0 1 1 2 2 1 1 1 3 4 4 4 3 5 5 3 1
5 5 6 6 6 6 7 7 8 8 8 8 7 7 7 6 5 5 5 5 5 4 4 4 3 2 1 1 1 0 1 1 1 2 3 4 4 3 3 3 3 2 2
4 5 7 7 7 7 7 7 8 9 9 8 7 6 6 6 5 4 4 5 4 5 6 5 4 4 4 4 5 3 2 2 3 1 0 1 2 2 2 2 2 2 2
4 5 6 7 7 8 8 8 9 10 9 8 7 6 5 5 5 5 3 4 4 6 8 8 6 5 6 5 5 5 5 4 4 1 1 2 2 3 3 4 3 3 3
Wind_Direction
228 206 188 176 168 170 173 180 182 185 176 175 181 187 199 200 201 204 207 208 209 206 203 205 201 199 206 209 204 199 206 212 175 178 267 289 255 236 227 215 211 214 214
218 210 195 173 172 177 176 175 183 184 185 188 186 185 184 199 204 204 210 212 213 213 212 209 210 207 210 212 208 201 201 205 180 173 186 270 293 258 230 217 218 218 212
205 202 192 178 163 170 178 177 178 180 185 184 169 149 146 171 201 215 219 220 219 218 218 218 214 213 212 218 216 208 205 213 207 194 178 195 230 264 274 238 227 215 210
192 184 174 164 156 165 160 159 161 164 176 173 172 178 192 208 217 220 226 236 231 231 229 225 219 218 219 222 220 214 212 207 213 217 222 213 181 197 258 273 241 217 215
178 167 158 148 135 128 122 121 122 129 148 158 174 184 201 216 223 222 229 237 243 241 240 235 228 226 223 225 223 217 214 214 216 208 203 219 221 209 217 256 257 249 230
155 144 135 125 112 101 98 100 107 102 108 135 150 172 191 200 202 221 232 243 246 247 252 249 240 235 231 228 227 224 219 221 220 218 209 199 198 204 212 235 235 230 226
147 144 139 130 121 111 105 101 106 97 87 107 122 154 181 190 204 220 229 240 245 248 257 248 247 245 241 237 232 226 227 224 222 223 223 221 224 204 203 223 229 224 226
145 146 147 143 134 121 108 104 104 94 78 88 90 88 130 175 210 224 227 232 239 245 253 248 248 252 249 240 229 225 227 224 224 227 222 222 227 216 209 207 204 224 238
144 141 139 134 130 124 113 110 106 92 74 79 83 66 57 70 78 54 153 244 274 260 260 249 254 262 256 240 213 209 215 195 203 216 211 216 216 198 210 205 198 210 235
138 136 135 132 122 114 101 92 93 90 76 71 74 76 55 52 59 66 57 45 24 14 25 22 13 356 5 12 106 114 111 115 107 119 124 125 106 89 87 147 178 209 223
151 146 139 127 116 103 95 92 87 83 76 75 73 69 59 58 61 60 50 44 39 39 48 51 57 57 52 52 73 77 81 93 85 81 98 94 88 95 86 85 90 82 158
153 148 140 126 116 109 103 98 93 90 86 87 83 76 68 66 64 57 48 50 50 47 51 57 62 60 56 58 70 76 77 82 82 79 85 86 90 88 82 88 91 89 78
151 144 141 140 138 131 122 111 104 103 96 95 90 80 72 70 67 61 56 56 58 57 55 60 63 61 60 63 66 73 75 76 77 79 87 91 95 88 80 83 84 80 73
164 160 160 159 156 148 140 130 118 112 108 102 95 86 78 76 74 70 66 63 65 66 63 64 67 66 66 67 71 76 77 76 72 72 76 78 86 96 96 86 82 83 80
176 177 175 172 166 156 150 142 132 121 115 109 102 96 87 80 77 73 69 68 70 72 71 72 70 69 71 75 81 81 84 84 81 72 69 73 84 91 94 99 100 97 89
191 185 179 175 175 172 166 153 144 136 125 119 114 107 99 90 85 82 79 78 75 73 73 72 72 70 75 86 89 91 85 85 83 77 65 66 67 76 80 86 89 92 98
190 185 184 185 184 179 167 160 153 139 129 125 121 115 110 103 98 96 90 86 82 79 76 73 75 76 81 86 89 91 89 83 80 76 70 66 64 65 61 65 58 45 42
185 184 181 176 171 163 154 148 144 140 137 134 129 126 123 117 108 103 98 93 89 86 83 79 75 75 81 88 91 92 82 78 72 71 75 79 56 54 82 77 54 29 10
176 174 168 163 157 158 154 146 144 143 143 145 144 142 137 131 124 118 111 104 100 92 87 84 80 77 79 89 94 93 82 78 65 59 67 82 39 27 63 85 52 3 334
141 145 141 142 153 159 151 148 151 152 156 154 149 145 141 138 135 131 123 113 111 106 99 90 83 84 79 95 99 101 94 86 66 43 30 30 15 1 23 109 134 296 289
139 141 144 154 166 160 153 155 158 165 158 146 142 141 140 140 138 132 126 124 118 111 105 98 80 70 84 97 99 104 111 120 109 69 360 322 329 339 335 337 219 269 288
145 149 153 163 163 160 158 161 169 161 148 144 144 144 144 145 142 134 129 128 129 126 124 118 101 43 34 85 100 98 103 120 126 163 276 290 309 320 325 327 303 307 333
173 168 168 169 170 171 168 170 169 156 151 149 151 149 146 143 146 145 144 143 147 150 156 157 161 178 326 344 97 94 82 94 140 249 286 302 312 327 332 319 319 340 357
187 178 174 179 184 182 178 173 164 161 158 159 158 155 152 151 151 154 159 163 170 171 176 180 184 193 214 240 248 299 328 323 311 300 306 324 334 341 325 324 336 331 276
195 188 191 194 192 183 181 174 168 164 164 165 165 164 163 160 158 161 175 178 191 188 186 192 188 189 214 230 221 212 224 233 242 254 328 341 330 326 316 306 297 292 298
200 199 202 199 192 185 185 181 176 172 170 173 175 174 169 165 161 155 151 185 189 201 202 198 195 211 221 227 228 241 254 266 273 260 240 271 278 279 284 290 293 288 283
Height
1501 1503 1506 1508 1510 1512 1514 1516 1519 1521 1523 1525 1527 1529 1530 1532 1534 1535 1537 1538 1539 1540 1541 1542 1543 1544 1544 1545 1546 1547 1548 1548 1549 1550 1550 1549 1549 1549 1549 1549 1549 1549 1549
1497 1499 1502 1504 1506 1508 1510 1512 1515 1517 1519 1521 1523 1525 1527 1528 1530 1531 1533 1534 1535 1536 1537 1538 1538 1539 1540 1541 1542 1542 1543 1543 1545 1545 1545 1544 1544 1542 1543 1543 1543 1543 1543
1492 1495 1497 1500 1502 1504 1506 1508 1510 1512 1514 1517 1519 1521 1523 1524 1525 1526 1527 1529 1530 1531 1532 1533 1534 1534 1535 1535 1536 1537 1538 1538 1539 1540 1541 1539 1536 1537 1536 1536 1536 1536 1537
1488 1491 1493 1496 1498 1500 1503 1505 1507 1508 1510 1512 1514 1516 1517 1518 1519 1521 1523 1524 1525 1526 1527 1527 1528 1529 1529 1530 1530 1531 1532 1533 1533 1534 1534 1534 1533 1533 1530 1531 1531 1531 1530
1485 1487 1489 1492 1494 1497 1499 1501 1503 1505 1506 1508 1509 1511 1512 1514 1515 1517 1518 1519 1520 1520 1521 1522 1522 1523 1523 1524 1524 1525 1526 1526 1526 1527 1527 1527 1527 1526 1526 1524 1524 1525 1525
1481 1484 1487 1489 1491 1493 1495 1497 1499 1501 1502 1503 1505 1506 1507 1509 1510 1511 1512 1513 1514 1514 1515 1515 1516 1516 1517 1517 1518 1518 1519 1519 1520 1520 1520 1520 1520 1519 1519 1518 1517 1517 1518
1477 1481 1484 1486 1488 1490 1492 1494 1495 1497 1498 1499 1500 1502 1503 1504 1505 1506 1507 1507 1508 1508 1509 1509 1509 1510 1510 1511 1511 1511 1512 1512 1513 1513 1513 1513 1513 1513 1513 1512 1511 1510 1510
1475 1478 1481 1484 1486 1487 1489 1490 1492 1493 1494 1495 1496 1497 1498 1499 1500 1500 1501 1502 1502 1502 1503 1503 1503 1503 1504 1504 1504 1504 1505 1505 1506 1506 1506 1506 1506 1506 1506 1506 1506 1504 1503
1473 1477 1479 1482 1483 1485 1486 1487 1488 1490 1491 1492 1493 1493 1494 1494 1495 1495 1496 1496 1496 1497 1497 1497 1497 1497 1497 1498 1498 1498 1498 1499 1499 1499 1499 1499 1499 1500 1500 1500 1500 1500 1497
1473 1476 1478 1480 1482 1483 1484 1485 1486 1487 1488 1488 1489 1489 1490 1490 1490 1491 1491 1491 1491 1491 1491 1491 1491 1491 1491 1492 1492 1492 1492 1493 1493 1493 1493 1493 1493 1493 1493 1493 1493 1493 1492
1473 1475 1477 1479 1480 1481 1482 1483 1483 1484 1485 1485 1486 1486 1486 1486 1487 1487 1487 1487 1487 1487 1487 1486 1486 1486 1486 1486 1487 1487 1487 1487 1487 1487 1488 1487 1488 1487 1488 1487 1487 1487 1487
1472 1475 1476 1478 1479 1479 1480 1481 1481 1482 1482 1483 1483 1483 1483 1483 1483 1483 1483 1483 1483 1483 1483 1482 1482 1482 1482 1482 1482 1482 1482 1482 1483 1483 1483 1483 1483 1483 1483 1482 1482 1482 1482
1472 1474 1475 1476 1477 1478 1478 1479 1479 1479 1480 1480 1480 1480 1480 1480 1480 1480 1480 1480 1479 1479 1479 1479 1479 1479 1479 1479 1479 1479 1479 1479 1479 1479 1479 1479 1479 1479 1479 1478 1478 1478 1478
1471 1472 1474 1475 1475 1476 1476 1476 1477 1477 1477 1477 1477 1478 1477 1477 1477 1477 1477 1477 1477 1477 1477 1476 1476 1476 1476 1476 1476 1476 1476 1476 1476 1476 1476 1476 1476 1476 1476 1475 1475 1475 1474
1469 1470 1471 1472 1473 1474 1474 1474 1474 1475 1475 1475 1475 1475 1475 1475 1475 1475 1475 1475 1475 1475 1475 1475 1474 1474 1474 1474 1474 1474 1474 1474 1474 1474 1474 1473 1473 1473 1473 1473 1472 1472 1472
1467 1468 1469 1470 1471 1471 1471 1472 1472 1472 1473 1473 1473 1473 1473 1473 1473 1473 1473 1474 1474 1474 1474 1473 1473 1473 1473 1473 1473 1473 1473 1472 1472 1472 1472 1472 1472 1471 1471 1471 1470 1470 1470
1464 1465 1467 1467 1468 1469 1469 1469 1470 1470 1470 1471 1471 1471 1471 1471 1472 1472 1472 1473 1473 1473 1473 1472 1472 1472 1472 1472 1472 1472 1472 1471 1471 1471 1471 1471 1470 1470 1470 1469 1469 1468 1467
1462 1463 1464 1465 1466 1466 1467 1467 1467 1468 1468 1468 1469 1469 1469 1470 1470 1471 1472 1472 1472 1472 1472 1472 1472 1472 1472 1472 1471 1471 1471 1471 1470 1470 1470 1470 1469 1469 1468 1467 1466 1466 1465
1460 1461 1462 1462 1463 1463 1464 1464 1465 1465 1466 1467 1467 1468 1468 1469 1470 1470 1471 1471 1471 1472 1472 1472 1472 1472 1472 1471 1471 1471 1471 1470 1470 1470 1469 1469 1468 1467 1466 1465 1464 1463 1462
1457 1458 1459 1459 1460 1461 1461 1462 1462 1463 1464 1465 1466 1466 1467 1468 1469 1469 1470 1470 1471 1471 1471 1472 1472 1472 1472 1471 1471 1471 1470 1470 1469 1469 1468 1467 1466 1465 1464 1463 1462 1461 1460
1455 1456 1456 1457 1457 1458 1459 1459 1460 1461 1462 1463 1464 1465 1466 1467 1468 1469 1469 1470 1471 1471 1471 1472 1472 1472 1472 1471 1471 1470 1470 1469 1468 1467 1466 1465 1464 1463 1462 1461 1459 1458 1457
1453 1454 1454 1454 1455 1456 1456 1457 1458 1459 1460 1461 1463 1464 1465 1466 1467 1468 1469 1469 1470 1471 1471 1471 1471 1471 1471 1471 1470 1469 1468 1468 1467 1466 1464 1463 1462 1461 1459 1458 1457 1456 1454
1451 1452 1452 1452 1453 1453 1454 1455 1456 1458 1459 1460 1461 1463 1464 1465 1466 1467 1468 1469 1469 1470 1470 1470 1471 1470 1470 1470 1469 1468 1467 1466 1465 1463 1462 1461 1460 1458 1457 1456 1454 1453 1451
1449 1449 1450 1450 1450 1451 1452 1453 1455 1456 1457 1458 1460 1461 1462 1463 1465 1466 1467 1468 1468 1469 1469 1469 1469 1469 1469 1468 1467 1466 1465 1464 1462 1461 1460 1458 1457 1455 1454 1453 1451 1450 1449
1447 1447 1447 1447 1448 1449 1450 1451 1452 1453 1455 1456 1458 1459 1460 1462 1463 1464 1466 1467 1467 1468 1468 1468 1468 1467 1467 1466 1465 1464 1463 1461 1460 1458 1457 1456 1454 1453 1451 1450 1448 1447 1446
1443 1444 1444 1444 1445 1446 1447 1448 1449 1451 1452 1454 1455 1457 1458 1460 1461 1463 1464 1464 1465 1466 1466 1466 1465 1465 1464 1463 1462 1461 1460 1458 1457 1456 1454 1453 1451 1449 1448 1446 1445 1444 1442